Погода в Ладинке

Украина / Черниговская область     51°17′09″N   31°08′30″E
темп.,
°C
ветер,
м/с
пор.,
м/с
влажн.,
%
обл.,
%
осадки,
мм/ч
давл.,
гПа
погр.,
м
22 мая, вс
вс2200:00+12з7149344 0.0 1003686
03:00+9з8148881 0.1 1002771
06:00+9з81383100 0.1 10011048
09:00+9з81386100 0.1 1000950
12:00+10зсз71190100 0.8 1001997
15:00+9зсз71194100 0.8 1001737
18:00+10ссз4894100 0.3 1003502
21:00+10с3595100 0.4 1005179
23 мая, пн
пн2300:00+8ссз349595 0.0 100786
03:00+8сз369453 0.0 1007114
06:00+6ссз349457 0.0 100872
09:00+11ссв35678 0.0 1009448
12:00+15св554649 0.0 10101586
15:00+16ссв454299 0.0 10102245
18:00+15ссв3553100 0.0 10101834
21:00+9всв116986 0.0 101110
24 мая, вт
вт2400:00+7с33780 0.0 101331
03:00+6с22765 0.0 101313
06:00+6ссз34785 0.0 101479
09:00+12ссз46615 0.0 1014531
12:00+16ссз465111 0.0 10141547
15:00+18сз464697 0.0 10142319
18:00+16сз3464100 0.0 101591
21:00+14сз35597 0.0 101687
25 мая, ср
ср2500:00+10з33706 0.0 101718
03:00+9з33765 0.0 101830
06:00+9з35784 0.0 101873
09:00+16з45604 0.0 1019439
12:00+20юз44441 0.0 10181635
15:00+21юз454055 0.0 10171912
18:00+20ююз4753100 0.0 1016482
21:00+15ю4671100 0.0 101586
26 мая, чт
чт2600:00+16ю51160100 0.0 1014266
03:00+15ююз6136896 0.0 1013369
06:00+13ююз6127298 0.0 1011406
09:00+12юз71294100 2.3 1010472
12:00+16зсз9117696 1.1 10111128
15:00+20сз9125218 1.1 10112289
18:00+17зсз6116010 0.1 1011636
21:00+14з5127082 0.2 1012363